COSMOS 726

导读 | 豆包AI

COSMOS 726是苏联(现归属独联体CIS)于1975年4月11日发射的卫星,属于苏联"宇宙"(COSMOS)系列卫星。冷战背景下,该系列多承担军事侦察与航天技术试验任务,COSMOS 726具体任务细节未公开,推测用于电子情报收集或空间技术验证,是苏联冷战太空部署的组成部分,现已完成使命,成为太空观测史上的早期卫星案例。

Basic Information
目录编号:
7736
目录名称:
COSMOS 726
国际标识:
1975-028A
轨道中心:
EARTH
卫星名称:
COSMOS 726
卫星全名:
--
卫星状态:
在轨 (已飞行18600 天)
发射日期:
1975-04-11 UTC
国别 :
俄罗斯(独联体) (CIS)
星等 :
--
Orbit Information
数据来源 国际轨道数据
星历时间: 2026-03-13T21:14:23+0800
15小时前
查看轨道信息
半长轴: 7347.538km
偏心率: 0.0024961
轨道倾角: 82.993°
近地点辐角 317.876°
升交点赤经 292.672°
平近点角 42.048°
近地点: 951.06km
远地点: 987.742km
周期: 104.465分钟
每日圈数: 13.784468
Detailed Information
使用方式:
暂无
2D Orbit Map
3D Orbit Map
Orbit Altitude Analysis Chart
Orbit Inclination Analysis Chart
Orbit Comprehensive Analysis Chart
View Comprehensive Chart